DW6064 Weather Reports


time (UTC)temp
F
wind
direction
speed
knots
gust
knots
rain 1hr
in
rain 24hr
in
rain mn
in
humidity
%
barometer
mb
20260903080036 72 40 3.5 11.3 0.00 0.32 0.00 90 1017.2
20260903075533 72 55 5.2 10.4 0.00 0.32 0.00 90 1017.2
20260903075033 72 44 2.6 12.2 0.00 0.32 0.00 90 1017.3
20260903074530 72 337 6.1 12.2 0.00 0.32 0.00 90 1017.2
20260903074056 72 355 5.2 13.0 0.00 0.32 0.00 90 1017.1
20260903073557 72 9 6.1 13.0 0.00 0.32 0.00 90 1017.2
20260903073035 72 319 4.3 8.7 0.00 0.32 0.00 90 1017.0
20260903072558 72 157 0.9 3.5 0.00 0.32 0.00 89 1016.5
20260903072036 72 174 0.9 2.6 0.00 0.32 0.00 89 1016.4
20260903071537 72 174 0.0 1.7 0.00 0.32 0.00 90 1016.4
20260903071036 72 174 0.9 2.6 0.00 0.32 0.00 90 1016.3
20260903070534 72 174 0.9 2.6 0.00 0.32 0.00 89 1016.4
20260903070037 73 360 0.0 2.6 0.00 0.32 0.00 90 1016.5
20260903065534 73 360 0.0 2.6 0.00 0.32 0.00 90 1016.5
20260903065058 73 360 1.7 2.6 0.00 0.32 0.00 90 1016.7
20260903064559 73 144 0.0 2.6 0.00 0.32 0.00 89 1016.6
20260903064036 73 144 0.9 2.6 0.00 0.32 0.00 89 1016.4
20260903063533 73 148 2.6 2.6 0.00 0.32 0.00 89 1016.5
20260903063033 73 360 0.0 3.5 0.00 0.32 0.00 89 1016.7
20260903062553 73 360 0.9 4.3 0.00 0.32 0.00 89 1016.8
20260903062032 73 331 2.6 4.3 0.00 0.32 0.00 89 1016.8
20260903061530 73 33 0.9 2.6 0.00 0.32 0.00 89 1016.6
20260903061027 73 33 0.9 2.6 0.00 0.32 0.00 89 1016.6
20260903060526 73 22 0.9 5.2 0.00 0.32 0.00 89 1016.6
20260903060045 73 360 2.6 5.2 0.00 0.32 0.00 89 1016.7
20260903055542 73 5 1.7 5.2 0.00 0.32 0.00 88 1016.6
20260903055042 73 5 1.7 5.2 0.00 0.32 0.00 88 1016.7
20260903054539 73 19 2.6 7.0 0.00 0.32 0.00 88 1016.6
20260903054038 73 11 2.6 7.8 0.00 0.32 0.00 88 1016.6
20260903053540 73 17 3.5 7.8 0.00 0.32 0.00 88 1016.7
20260903053038 73 355 1.7 7.8 0.00 0.32 0.00 87 1016.6
20260903052536 73 346 1.7 4.3 0.00 0.32 0.00 87 1016.7
20260903052036 73 355 1.7 4.3 0.00 0.32 0.00 87 1016.5
20260903051534 73 9 1.7 3.5 0.00 0.32 0.00 86 1016.4
20260903051035 73 59 0.9 3.5 0.00 0.32 0.00 86 1016.5
20260903050532 73 59 0.9 3.5 0.00 0.32 0.00 86 1016.5
20260903050057 73 69 1.7 3.5 0.00 0.32 0.00 86 1016.5
20260903045533 73 32 0.9 3.5 0.00 0.32 0.00 86 1016.6
20260903045032 73 5 2.6 3.5 0.00 0.32 0.00 86 1016.7
20260903044549 73 319 1.7 2.6 0.00 0.32 0.00 86 1016.7
20260903044047 73 281 1.7 2.6 0.00 0.32 0.00 86 1016.7
20260903043543 73 189 0.9 2.6 0.00 0.32 0.00 85 1016.6
20260903043043 73 189 0.0 1.7 0.00 0.32 0.00 85 1016.6
20260903042540 73 189 0.9 1.7 0.00 0.32 0.00 85 1016.4
20260903042038 73 189 0.0 3.5 0.00 0.32 0.00 86 1016.6
20260903041536 73 189 0.9 4.3 0.00 0.32 0.00 85 1016.7
20260903041038 73 189 2.6 4.3 0.00 0.32 0.00 85 1016.7
20260903040534 73 198 2.6 4.3 0.00 0.32 0.00 85 1016.7
20260903040034 74 215 0.9 2.6 0.00 0.32 0.00 85 1016.8
20260903035556 74 329 0.0 2.6 0.00 0.32 0.32 85 1017.1
20260903035034 74 329 0.0 3.5 0.00 0.32 0.32 85 1017.2
20260903034532 74 329 1.7 3.5 0.00 0.32 0.32 85 1017.2
20260903034032 74 334 1.7 2.6 0.00 0.32 0.32 84 1017.2
20260903033529 74 175 0.0 1.7 0.00 0.32 0.32 84 1017.0
20260903033028 74 175 0.0 1.7 0.00 0.32 0.32 84 1017.1
20260903032523 74 175 0.9 2.6 0.00 0.32 0.32 84 1017.0
20260903032043 75 175 1.7 2.6 0.00 0.32 0.32 84 1016.9
20260903031602 75 175 0.9 1.7 0.00 0.32 0.32 84 1016.9
20260903031040 75 175 0.9 1.7 0.00 0.32 0.32 84 1017.1
20260903030537 75 175 0.9 2.6 0.00 0.32 0.32 84 1017.0
20260903030036 75 175 0.9 3.5 0.00 0.32 0.32 84 1016.9
20260903025556 75 175 2.6 3.5 0.00 0.32 0.32 84 1017.0
20260903025035 75 175 2.6 3.5 0.00 0.32 0.32 84 1017.2
20260903024536 75 156 1.7 2.6 0.00 0.32 0.32 84 1017.2
20260903024039 75 156 0.0 5.2 0.00 0.32 0.32 84 1017.1
20260903023536 75 156 1.7 7.0 0.00 0.32 0.32 84 1016.9
20260903023036 75 164 2.6 7.0 0.00 0.32 0.32 84 1016.8
20260903022533 75 144 4.3 7.0 0.00 0.32 0.32 84 1016.6
20260903022033 75 140 3.5 7.0 0.00 0.32 0.32 83 1016.5
20260903021530 75 152 3.5 7.0 0.00 0.32 0.32 83 1016.4
20260903021029 75 174 5.2 7.0 0.00 0.32 0.32 83 1016.6
20260903020552 75 153 3.5 7.0 0.00 0.32 0.32 83 1016.6
20260903020030 75 169 3.5 7.0 0.00 0.32 0.32 83 1016.7
20260903015530 75 145 3.5 6.1 0.00 0.32 0.32 82 1016.8
20260903015029 76 160 2.6 4.3 0.00 0.32 0.32 82 1017.0
20260903014527 76 153 2.6 7.0 0.00 0.32 0.32 82 1017.0
20260903014026 76 136 2.6 8.7 0.00 0.32 0.32 82 1017.0
20260903013542 76 132 4.3 8.7 0.00 0.32 0.32 81 1017.1
20260903013041 76 139 3.5 7.8 0.00 0.32 0.32 82 1017.1
20260903012539 76 152 4.3 7.8 0.00 0.32 0.32 81 1017.2
20260903012044 76 138 6.1 7.8 0.00 0.32 0.32 82 1017.0
20260903011539 76 146 5.2 7.8 0.00 0.32 0.32 82 1016.8
20260903011039 76 162 3.5 6.1 0.00 0.32 0.32 82 1016.9
20260903010535 76 153 5.2 6.1 0.00 0.32 0.32 83 1016.9
20260903010059 77 164 4.3 7.0 0.00 0.32 0.32 82 1017.0
20260903005534 77 168 3.5 6.1 0.00 0.32 0.32 82 1016.9
20260903005034 77 159 3.5 6.1 0.00 0.32 0.32 82 1016.7
20260903004531 77 146 2.6 5.2 0.00 0.32 0.32 82 1016.6
20260903004031 78 148 2.6 5.2 0.00 0.32 0.32 82 1016.7
20260903003526 78 140 1.7 6.1 0.00 0.32 0.32 82 1016.7
20260903003051 78 121 3.5 6.1 0.00 0.32 0.32 82 1016.5
20260903002552 78 123 3.5 6.1 0.00 0.32 0.32 82 1016.6
20260903002029 78 168 2.6 4.3 0.00 0.32 0.32 81 1016.8
20260903001526 79 168 2.6 4.3 0.00 0.32 0.32 81 1017.3
20260903001026 79 188 2.6 2.6 0.00 0.32 0.32 81 1017.1
20260903000543 79 188 1.7 4.3 0.00 0.32 0.32 80 1017.2
20260903000027 79 188 2.6 4.3 0.00 0.32 0.32 80 1017.2
20260902235543 79 190 3.5 5.2 0.00 0.32 0.32 80 1017.2
20260902235042 79 208 1.7 5.2 0.00 0.32 0.32 80 1017.3
20260902234540 80 183 3.5 7.0 0.00 0.32 0.32 80 1017.0
20260902234038 80 163 5.2 7.0 0.00 0.32 0.32 80 1017.1
20260902233536 80 186 3.5 6.1 0.00 0.32 0.32 79 1017.2
20260902233035 80 141 1.7 6.1 0.00 0.32 0.32 79 1017.3
20260902232558 80 150 1.7 4.3 0.00 0.32 0.32 79 1017.3
20260902232101 80 150 2.6 4.3 0.00 0.32 0.32 79 1017.2
20260902231537 80 169 2.6 6.1 0.00 0.32 0.32 79 1017.4
20260902231102 81 146 2.6 6.1 0.00 0.32 0.32 78 1017.4
20260902230538 81 150 3.5 6.1 0.00 0.32 0.32 77 1017.5
20260902230038 81 142 3.5 6.1 0.00 0.32 0.32 78 1017.2
20260902225535 82 121 3.5 6.1 0.00 0.32 0.32 77 1016.8
20260902225033 82 120 2.6 6.1 0.00 0.32 0.32 76 1017.1
20260902224531 82 121 2.6 6.1 0.00 0.32 0.32 76 1017.1
20260902224030 82 134 2.6 4.3 0.00 0.32 0.32 76 1017.1
20260902223552 82 182 2.6 4.3 0.00 0.32 0.32 75 1017.0
20260902223034 82 182 1.7 2.6 0.00 0.32 0.32 76 1016.9
20260902222533 83 182 0.9 1.7 0.00 0.32 0.32 75 1016.9
20260902222033 83 182 0.0 1.7 0.00 0.32 0.32 76 1017.0
20260902221535 83 182 0.0 2.6 0.00 0.32 0.32 74 1016.8
20260902221033 83 182 0.9 2.6 0.00 0.32 0.32 73 1017.0
20260902220555 84 182 0.9 3.5 0.00 0.32 0.32 72 1017.0
20260902220033 84 182 0.0 3.5 0.00 0.32 0.32 72 1016.8
20260902215556 84 227 0.0 3.5 0.00 0.32 0.32 72 1017.0
20260902215057 85 227 0.9 3.5 0.00 0.32 0.32 71 1017.2
20260902214534 85 187 0.0 4.3 0.00 0.32 0.32 70 1017.1
20260902214033 85 187 1.7 6.1 0.00 0.32 0.32 69 1017.1
20260902213530 85 144 2.6 6.1 0.00 0.32 0.32 70 1017.2
20260902213048 85 215 0.9 3.5 0.00 0.32 0.32 68 1017.2
20260902212524 85 258 0.9 3.5 0.00 0.32 0.32 71 1017.2
20260902212044 85 190 1.7 3.5 0.00 0.32 0.32 69 1017.2
20260902211541 85 220 1.7 3.5 0.00 0.32 0.32 69 1017.2
20260902211040 85 164 1.7 4.3 0.00 0.32 0.32 70 1017.2
20260902210538 84 269 1.7 3.5 0.00 0.32 0.32 71 1017.2
20260902210036 84 221 1.7 3.5 0.00 0.32 0.32 71 1017.2
20260902205538 84 180 0.0 3.5 0.00 0.32 0.32 72 1017.3
20260902205037 84 180 1.7 4.3 0.00 0.32 0.32 72 1017.4
20260902204534 84 209 2.6 4.3 0.00 0.32 0.32 71 1017.5
20260902204034 84 175 1.7 4.3 0.00 0.32 0.32 72 1017.6
20260902203529 84 188 0.9 4.3 0.00 0.32 0.32 73 1017.8
20260902203055 85 179 2.6 6.1 0.00 0.32 0.32 69 1017.8
20260902202555 85 140 2.6 6.1 0.00 0.32 0.32 72 1017.8
20260902202034 85 143 3.5 6.1 0.00 0.32 0.32 70 1017.7
20260902201532 85 166 0.9 2.6 0.00 0.32 0.32 71 1017.6
20260902201032 85 165 0.9 4.3 0.00 0.32 0.32 71 1017.6
20260902200528 84 159 2.6 6.1 0.00 0.32 0.32 71 1017.6
20260902200029 84 139 1.7 6.1 0.00 0.32 0.32 72 1017.6
20260902195526 84 165 0.9 4.3 0.00 0.32 0.32 72 1017.5
20260902195025 83 165 0.9 4.3 0.00 0.32 0.32 73 1017.5
20260902194540 83 218 0.9 3.5 0.00 0.32 0.32 73 1017.4
20260902194039 83 64 1.7 6.1 0.00 0.32 0.32 72 1017.4
20260902193541 83 173 3.5 6.1 0.00 0.32 0.32 75 1017.4
20260902193040 82 80 2.6 5.2 0.00 0.32 0.32 76 1017.5
20260902192538 81 182 0.9 7.0 0.00 0.32 0.32 77 1017.6
20260902192038 81 186 4.3 9.6 0.00 0.32 0.32 78 1017.8
20260902191535 80 150 6.1 9.6 0.00 0.32 0.32 82 1017.9
20260902191034 79 178 2.6 6.1 0.00 0.32 0.32 84 1018.0
20260902190531 78 190 4.3 6.1 0.00 0.32 0.32 84 1018.0
20260902190030 78 188 3.5 5.2 0.00 0.32 0.32 85 1017.9
20260902185528 77 136 0.9 6.1 0.00 0.32 0.32 87 1018.0
20260902185047 76 165 1.7 6.1 0.00 0.32 0.32 88 1018.1
20260902184524 76 160 3.5 6.1 0.00 0.32 0.32 91 1018.1
20260902184043 75 184 2.6 4.3 0.00 0.32 0.32 89 1018.1
20260902183538 75 220 0.9 3.5 0.00 0.32 0.32 90 1018.2
20260902183103 75 156 0.9 3.5 0.00 0.32 0.32 93 1018.3
20260902182539 75 186 0.9 2.6 0.00 0.32 0.32 93 1018.4
20260902182043 75 103 0.9 2.6 0.00 0.32 0.32 94 1018.3
20260902181605 74 194 0.0 1.7 0.00 0.32 0.32 94 1018.4
20260902181027 73 194 0.0 0.9 0.00 0.32 0.32 94 1018.4
20260902180524 73 194 0.0 0.9 0.00 0.32 0.32 94 1018.2
20260902180044 73 194 0.0 0.0 0.01 0.32 0.32 93 1018.3
20260902175540 72 194 0.0 0.9 0.01 0.32 0.32 93 1018.4
20260902175039 72 194 0.0 2.6 0.01 0.32 0.32 93 1018.5
20260902174536 72 194 1.7 2.6 0.01 0.32 0.32 93 1018.4
20260902174035 72 206 1.7 3.5 0.01 0.32 0.32 93 1018.6
20260902173532 72 169 0.9 2.6 0.01 0.32 0.32 92 1018.7
20260902173033 72 228 0.9 1.7 0.02 0.32 0.32 93 1018.8
20260902172554 72 228 0.9 4.3 0.02 0.32 0.32 92 1018.9
20260902172032 72 186 1.7 5.2 0.03 0.32 0.32 92 1019.1
20260902171529 72 188 2.6 4.3 0.05 0.32 0.32 92 1019.1
20260902171054 72 160 0.0 0.9 0.11 0.32 0.32 93 1019.2
20260902170530 72 160 0.0 0.9 0.16 0.32 0.32 92 1019.3
20260902170030 72 160 0.0 2.6 0.24 0.31 0.31 92 1019.5
20260902165528 72 160 0.9 2.6 0.31 0.31 0.31 91 1019.6
20260902165031 72 108 0.0 3.5 0.31 0.31 0.31 91 1019.4
20260902164549 72 108 1.7 5.2 0.31 0.31 0.31 90 1019.5
20260902164027 72 142 0.9 5.2 0.31 0.31 0.31 89 1019.7
20260902163542 72 87 1.7 5.2 0.31 0.31 0.31 89 1019.7
20260902163042 73 86 3.5 4.3 0.30 0.30 0.30 89 1019.9
20260902162540 73 51 0.9 4.3 0.30 0.30 0.30 88 1020.6
20260902162104 74 32 0.0 4.3 0.29 0.29 0.29 86 1020.9
20260902161540 75 66 1.7 5.2 0.27 0.27 0.27 85 1021.0
20260902161105 76 355 2.6 5.2 0.21 0.21 0.21 84 1021.7
20260902160540 77 277 3.5 13.9 0.16 0.16 0.16 82 1022.3
20260902160038 78 313 7.0 15.6 0.06 0.06 0.06 80 1022.2
20260902155536 79 304 7.8 18.2 0.00 0.00 0.00 80 1021.7
20260902155035 80 43 8.7 20.0 0.00 0.00 0.00 77 1021.2
20260902154531 81 5 10.4 20.0 0.00 0.00 0.00 76 1021.1
20260902154052 82 347 7.0 13.9 0.00 0.00 0.00 74 1020.4
20260902153553 83 41 5.2 11.3 0.00 0.00 0.00 74 1019.7
20260902153032 83 40 4.3 8.7 0.00 0.00 0.00 76 1019.4
20260902152529 83 314 4.3 8.7 0.00 0.00 0.00 75 1019.1
20260902152029 83 344 2.6 7.0 0.00 0.00 0.00 76 1018.8
20260902151529 84 304 1.7 3.5 0.00 0.00 0.00 74 1018.8
20260902151054 84 355 0.9 3.5 0.00 0.00 0.00 73 1018.6
20260902150529 84 355 1.7 3.5 0.00 0.00 0.00 74 1018.6
20260902150028 84 297 0.9 3.5 0.00 0.00 0.00 74 1018.5
20260902145543 84 292 0.9 2.6 0.00 0.01 0.00 72 1018.4
20260902145043 84 292 0.0 3.5 0.00 0.01 0.00 72 1018.4
20260902144540 83 310 0.0 3.5 0.00 0.01 0.00 74 1018.4
20260902144039 83 351 0.9 3.5 0.00 0.01 0.00 75 1018.4
20260902143536 83 315 0.0 3.5 0.00 0.01 0.00 75 1018.3
20260902143036 83 325 1.7 3.5 0.00 0.01 0.00 75 1018.3
20260902142557 82 41 0.0 0.0 0.00 0.01 0.00 74 1018.4
20260902142036 82 41 0.0 0.0 0.00 0.01 0.00 74 1018.3
20260902141558 82 41 0.0 0.0 0.00 0.01 0.00 75 1018.3
20260902141036 81 41 0.0 0.0 0.00 0.01 0.00 76 1018.3
20260902140559 81 41 0.0 1.7 0.00 0.01 0.00 75 1018.3
20260902140034 81 41 0.0 2.6 0.00 0.01 0.00 76 1018.5
20260902135531 81 131 0.9 2.6 0.00 0.01 0.00 75 1018.4
20260902135054 80 131 0.9 4.3 0.00 0.01 0.00 78 1018.4
20260902134531 80 131 0.9 4.3 0.00 0.01 0.00 77 1018.3
20260902134029 80 140 2.6 4.3 0.00 0.01 0.00 77 1018.2
20260902133530 79 111 1.7 3.5 0.00 0.01 0.00 79 1018.3
20260902133030 79 49 0.9 2.6 0.00 0.01 0.00 79 1018.2
20260902132526 78 49 0.0 1.7 0.00 0.01 0.00 80 1018.3
20260902132026 78 80 0.9 2.6 0.00 0.01 0.00 80 1018.4
20260902131543 78 80 0.9 2.6 0.00 0.01 0.00 80 1018.6
20260902131042 77 334 0.0 1.7 0.00 0.01 0.00 82 1018.6
20260902130539 77 334 0.0 0.9 0.00 0.01 0.00 81 1018.6
20260902130039 77 334 0.0 0.9 0.00 0.01 0.00 83 1018.5
20260902125536 76 334 0.0 0.9 0.00 0.01 0.00 83 1018.5
20260902125036 76 334 0.0 2.6 0.00 0.01 0.00 83 1018.3
20260902124559 76 334 0.0 2.6 0.00 0.01 0.00 83 1018.3
20260902124103 75 334 1.7 2.6 0.00 0.01 0.00 84 1018.4
20260902123538 75 334 0.0 1.7 0.00 0.01 0.00 84 1018.3
20260902123102 75 334 0.0 2.6 0.00 0.01 0.00 85 1018.2
20260902122538 75 334 0.0 1.7 0.00 0.01 0.00 85 1018.1
20260902122041 74 302 0.0 2.6 0.00 0.01 0.00 86 1018.0
20260902121539 74 324 0.9 4.3 0.00 0.01 0.00 86 1018.0
20260902121038 74 13 0.0 4.3 0.00 0.01 0.00 86 1018.0
20260902120540 74 339 1.7 3.5 0.00 0.01 0.00 86 1018.1
20260902120038 73 355 1.7 3.5 0.00 0.01 0.00 87 1018.2
20260902115535 73 23 0.9 2.6 0.00 0.01 0.00 87 1018.1
20260902115034 73 11 0.9 2.6 0.00 0.01 0.00 87 1018.0
20260902114531 73 5 0.9 2.6 0.00 0.01 0.00 88 1018.0
20260902114050 73 360 0.0 0.9 0.00 0.01 0.00 88 1017.9
20260902113525 72 360 0.0 1.7 0.00 0.01 0.00 88 1017.8
20260902113025 72 360 0.0 2.6 0.00 0.01 0.00 88 1017.9
20260902112542 72 360 0.9 2.6 0.00 0.01 0.00 88 1017.8
20260902112040 72 355 0.9 2.6 0.00 0.01 0.00 88 1018.0
20260902111538 72 61 0.0 2.6 0.00 0.01 0.00 87 1017.7
20260902111102 72 61 0.0 3.5 0.00 0.01 0.00 87 1017.7
20260902110538 72 80 1.7 3.5 0.00 0.01 0.00 87 1017.5
20260902110037 72 17 1.7 2.6 0.00 0.01 0.00 87 1017.5
20260902105534 73 329 0.0 1.7 0.00 0.01 0.00 87 1017.7
20260902105033 73 329 0.0 1.7 0.00 0.01 0.00 87 1017.7
20260902104551 73 329 0.9 4.3 0.00 0.01 0.00 86 1017.8
20260902104053 73 329 1.7 4.3 0.00 0.01 0.00 86 1017.8
20260902103551 73 316 1.7 2.6 0.00 0.01 0.00 86 1017.7
20260902103033 73 165 0.0 2.6 0.00 0.01 0.00 86 1017.6
20260902102532 73 165 0.9 2.6 0.00 0.01 0.00 86 1017.6
20260902102030 73 165 1.7 3.5 0.00 0.01 0.00 86 1017.6
20260902101553 73 165 0.0 1.7 0.00 0.01 0.00 86 1017.6
20260902101051 73 165 0.0 0.0 0.00 0.01 0.00 85 1017.6
20260902100527 73 165 0.0 0.0 0.00 0.01 0.00 85 1017.6
20260902100027 73 165 0.0 0.0 0.00 0.01 0.00 85 1017.7
20260902095543 73 165 0.0 0.0 0.00 0.01 0.00 85 1017.7
20260902095042 73 165 0.0 0.0 0.00 0.01 0.00 85 1017.6
20260902094604 73 165 0.0 2.6 0.00 0.01 0.00 85 1017.5
20260902094042 73 165 0.9 4.3 0.00 0.01 0.00 85 1017.5
20260902093539 73 165 2.6 4.3 0.00 0.01 0.00 85 1017.5
20260902093038 73 165 1.7 4.3 0.00 0.01 0.00 85 1017.4
20260902092533 73 165 3.5 4.3 0.00 0.01 0.00 86 1017.4
20260902092034 73 165 2.6 5.2 0.00 0.01 0.00 86 1017.6
20260902091530 73 164 2.6 5.2 0.00 0.01 0.00 86 1017.6
20260902091055 73 150 2.6 7.0 0.00 0.01 0.00 86 1017.5
20260902090531 73 151 4.3 8.7 0.00 0.01 0.00 86 1017.5
20260902090034 73 147 6.1 8.7 0.00 0.01 0.00 86 1017.4
20260902085533 73 139 4.3 7.8 0.00 0.01 0.00 86 1017.5
20260902085052 73 123 4.3 7.8 0.00 0.01 0.00 86 1017.4
20260902084529 73 144 4.3 7.0 0.00 0.01 0.00 86 1017.3
20260902084048 73 143 3.5 6.1 0.00 0.01 0.00 86 1017.3
20260902083525 73 140 2.6 6.1 0.00 0.01 0.00 86 1017.4
20260902083050 73 153 2.6 5.2 0.00 0.01 0.00 86 1017.3
20260902082526 73 146 0.9 4.3 0.00 0.01 0.00 86 1017.4
20260902082026 73 146 3.5 4.3 0.00 0.01 0.00 85 1017.3
20260902081542 73 149 3.5 6.1 0.00 0.01 0.00 85 1017.3
20260902081040 73 146 3.5 6.1 0.00 0.01 0.00 85 1017.2
20260902080537 73 128 1.7 5.2 0.00 0.01 0.00 86 1017.2